Portada
METAR-TAF:

METAR-TAF

Aeroports :

Oakey, Austràlia

latitud: 27-24-41S, longitud: 151-44-07E, altitud: 407 m

Observació

L'informe es va fer fa 21 minuts, a les 04:00 UTC
Vent 6 kt del Nord/Nord-Oest, variant entre Nord-Oest i Nord-Est
Temperatura 27°C
Humitat 39%
Pressió 1016 hPa
Visibilitat 10 km o més
Cel cobert a una alçada de 5600 ft

METAR: YBOK 200400Z AUTO 34006KT 320V040 9999 // OVC056 27/12 Q1016

Hora: 14:21 (04:21 UTC)


TAF: manca

Observacions i pronòstics meteorològics de més de 4000 aeroports (METAR i TAF).

Les estacions disponibles són els punts grocs i vermells al mapa.

Posi el ratolí al punt desitjat per veure el nom de l'estació.

Feu clic per veure les observacions i els pronòstics meteorològics.

Per canviar el mapa: feu clic els botons verds amb una creu de color negre per apropar; al botó verd amb un guió per allunyar la imatge; o en les fletxes verdes per a mapes adjacents.


METAR-TAF: